| time (UTC) | temp F | wind direction | speed knots | gust knots | rain 1hr in | rain 24hr in | rain mn in | humidity % | barometer mb |
| 20260906050021 | 57 | 180 | 1.7 | 10.4 | 0.00 | 0.12 | 0.00 | 91 | 1002.3 |
| 20260906044519 | 57 | 32 | 2.6 | 13.0 | 0.00 | 0.12 | 0.00 | 91 | 1002.5 |
| 20260906043015 | 57 | 142 | 2.6 | 10.4 | 0.00 | 0.12 | 0.00 | 91 | 1002.4 |
| 20260906041514 | 58 | 269 | 2.6 | 9.6 | 0.00 | 0.12 | 0.00 | 91 | 1002.5 |
| 20260906040013 | 58 | 144 | 3.5 | 8.7 | 0.00 | 0.12 | 0.00 | 91 | 1002.6 |
| 20260906034511 | 57 | 45 | 2.6 | 8.7 | 0.00 | 0.12 | 0.00 | 91 | 1002.5 |
| 20260906033009 | 57 | 62 | 1.7 | 12.2 | 0.00 | 0.12 | 0.00 | 91 | 1002.7 |
| 20260906031509 | 57 | 80 | 1.7 | 7.0 | 0.00 | 0.12 | 0.00 | 91 | 1002.9 |
| 20260906030005 | 57 | 325 | 2.6 | 12.2 | 0.00 | 0.12 | 0.00 | 91 | 1002.7 |
| 20260906024504 | 57 | 289 | 2.6 | 13.9 | 0.00 | 0.12 | 0.12 | 91 | 1002.7 |
| 20260906023004 | 57 | 274 | 2.6 | 11.3 | 0.00 | 0.12 | 0.12 | 91 | 1002.6 |
| 20260906021502 | 57 | 191 | 3.5 | 8.7 | 0.00 | 0.12 | 0.12 | 91 | 1002.7 |
| 20260906020002 | 57 | 22 | 1.7 | 9.6 | 0.00 | 0.12 | 0.12 | 91 | 1002.9 |
| 20260906014601 | 57 | 146 | 2.6 | 9.6 | 0.00 | 0.12 | 0.12 | 92 | 1003.1 |
| 20260906013059 | 57 | 41 | 3.5 | 11.3 | 0.00 | 0.12 | 0.12 | 92 | 1003.0 |
| 20260906011558 | 57 | 324 | 1.7 | 9.6 | 0.00 | 0.12 | 0.12 | 92 | 1002.9 |
| 20260906010106 | 57 | 222 | 2.6 | 11.3 | 0.00 | 0.12 | 0.12 | 92 | 1003.1 |
| 20260906004558 | 57 | 91 | 2.6 | 9.6 | 0.00 | 0.12 | 0.12 | 92 | 1003.2 |
| 20260906003059 | 57 | 336 | 1.7 | 7.8 | 0.00 | 0.12 | 0.12 | 93 | 1003.1 |
| 20260906001606 | 57 | 85 | 3.5 | 11.3 | 0.00 | 0.12 | 0.12 | 93 | 1003.1 |
| 20260906000054 | 57 | 260 | 2.6 | 9.6 | 0.00 | 0.12 | 0.12 | 93 | 1003.1 |
| 20260905234551 | 57 | 47 | 2.6 | 8.7 | 0.01 | 0.12 | 0.12 | 93 | 1002.9 |
| 20260905233054 | 57 | 209 | 1.7 | 13.9 | 0.01 | 0.12 | 0.12 | 93 | 1002.7 |
| 20260905231548 | 57 | 114 | 2.6 | 11.3 | 0.02 | 0.12 | 0.12 | 93 | 1002.6 |
| 20260905230052 | 57 | 4 | 1.7 | 12.2 | 0.04 | 0.12 | 0.12 | 93 | 1002.5 |
| 20260905224554 | 57 | 74 | 1.7 | 7.8 | 0.03 | 0.11 | 0.11 | 93 | 1002.2 |
| 20260905223046 | 57 | 105 | 1.7 | 10.4 | 0.03 | 0.11 | 0.11 | 93 | 1002.1 |
| 20260905221547 | 57 | 79 | 1.7 | 7.8 | 0.02 | 0.09 | 0.09 | 93 | 1002.0 |
| 20260905220039 | 58 | 134 | 1.7 | 10.4 | 0.02 | 0.08 | 0.08 | 93 | 1002.0 |
| 20260905214537 | 58 | 92 | 2.6 | 9.6 | 0.02 | 0.08 | 0.08 | 92 | 1001.9 |
| 20260905213036 | 58 | 249 | 2.6 | 11.3 | 0.02 | 0.08 | 0.08 | 92 | 1001.8 |
| 20260905211543 | 58 | 173 | 2.6 | 9.6 | 0.01 | 0.07 | 0.07 | 92 | 1001.7 |
| 20260905210038 | 58 | 125 | 3.5 | 13.0 | 0.00 | 0.06 | 0.06 | 91 | 1001.6 |
| 20260905204530 | 59 | 143 | 3.5 | 13.0 | 0.00 | 0.06 | 0.06 | 91 | 1001.4 |
| 20260905203032 | 59 | 357 | 3.5 | 13.0 | 0.00 | 0.06 | 0.06 | 91 | 1001.2 |
| 20260905201527 | 59 | 70 | 2.6 | 10.4 | 0.00 | 0.06 | 0.06 | 91 | 1001.1 |
| 20260905200035 | 59 | 59 | 3.5 | 9.6 | 0.01 | 0.06 | 0.06 | 91 | 1001.1 |
| 20260905194522 | 58 | 195 | 1.7 | 10.4 | 0.02 | 0.06 | 0.06 | 92 | 1000.9 |
| 20260905193019 | 58 | 36 | 3.5 | 11.3 | 0.02 | 0.06 | 0.06 | 92 | 1000.7 |
| 20260905191516 | 58 | 74 | 3.5 | 17.4 | 0.02 | 0.06 | 0.06 | 92 | 1000.6 |
| 20260905190014 | 59 | 27 | 2.6 | 13.9 | 0.01 | 0.06 | 0.06 | 91 | 1000.6 |
| 20260905184512 | 59 | 108 | 2.6 | 10.4 | 0.00 | 0.05 | 0.05 | 91 | 1000.5 |
| 20260905183010 | 59 | 53 | 4.3 | 12.2 | 0.00 | 0.05 | 0.05 | 91 | 1000.2 |
| 20260905181508 | 60 | 210 | 2.6 | 13.0 | 0.00 | 0.05 | 0.05 | 90 | 1000.1 |
| 20260905180008 | 60 | 284 | 2.6 | 18.2 | 0.00 | 0.05 | 0.05 | 90 | 1000.0 |
| 20260905174506 | 60 | 241 | 2.6 | 13.9 | 0.00 | 0.05 | 0.05 | 89 | 999.9 |
| 20260905173007 | 60 | 77 | 3.5 | 15.6 | 0.00 | 0.05 | 0.05 | 90 | 999.9 |
| 20260905171511 | 60 | 35 | 4.3 | 12.2 | 0.00 | 0.05 | 0.05 | 91 | 999.6 |
| 20260905170003 | 61 | 70 | 4.3 | 9.6 | 0.00 | 0.05 | 0.05 | 91 | 999.4 |
| 20260905164502 | 61 | 99 | 4.3 | 15.6 | 0.00 | 0.05 | 0.05 | 91 | 999.3 |
| 20260905163001 | 61 | 32 | 5.2 | 15.6 | 0.00 | 0.05 | 0.05 | 91 | 999.1 |
| 20260905161609 | 63 | 85 | 3.5 | 13.0 | 0.00 | 0.05 | 0.05 | 90 | 999.0 |
| 20260905160100 | 63 | 48 | 3.5 | 14.8 | 0.00 | 0.05 | 0.05 | 88 | 998.9 |
| 20260905154600 | 63 | 228 | 3.5 | 17.4 | 0.00 | 0.06 | 0.05 | 88 | 998.9 |
| 20260905153059 | 62 | 305 | 4.3 | 15.6 | 0.00 | 0.06 | 0.05 | 89 | 998.8 |
| 20260905151558 | 62 | 347 | 3.5 | 9.6 | 0.00 | 0.06 | 0.05 | 89 | 998.9 |
| 20260905150058 | 62 | 30 | 2.6 | 9.6 | 0.00 | 0.06 | 0.05 | 89 | 999.0 |
| 20260905144558 | 62 | 36 | 1.7 | 7.8 | 0.00 | 0.14 | 0.05 | 89 | 999.2 |
| 20260905143057 | 63 | 20 | 2.6 | 7.8 | 0.00 | 0.14 | 0.05 | 89 | 999.1 |
| 20260905141556 | 64 | 188 | 1.7 | 13.9 | 0.00 | 0.14 | 0.05 | 90 | 999.1 |
| 20260905140053 | 62 | 223 | 2.6 | 13.0 | 0.00 | 0.14 | 0.05 | 90 | 999.0 |
| 20260905134557 | 62 | 329 | 1.7 | 7.8 | 0.00 | 0.17 | 0.05 | 91 | 998.8 |
| 20260905133052 | 62 | 90 | 2.6 | 13.0 | 0.00 | 0.17 | 0.05 | 92 | 998.7 |
| 20260905131553 | 61 | 184 | 1.7 | 13.0 | 0.00 | 0.17 | 0.05 | 93 | 998.6 |
| 20260905130050 | 61 | 49 | 1.7 | 8.7 | 0.00 | 0.17 | 0.05 | 93 | 998.6 |
| 20260905124550 | 61 | 79 | 3.5 | 11.3 | 0.01 | 0.31 | 0.05 | 93 | 998.6 |
| 20260905123048 | 61 | 290 | 3.5 | 8.7 | 0.03 | 0.31 | 0.05 | 93 | 998.7 |
| 20260905121548 | 61 | 342 | 1.7 | 12.2 | 0.03 | 0.31 | 0.05 | 94 | 998.5 |
| 20260905120047 | 61 | 257 | 1.7 | 7.8 | 0.02 | 0.30 | 0.04 | 94 | 998.1 |
| 20260905114559 | 60 | 108 | 0.9 | 3.5 | 0.02 | 0.34 | 0.04 | 94 | 998.1 |
| 20260905113046 | 60 | 255 | 0.9 | 4.3 | 0.00 | 0.31 | 0.02 | 93 | 998.0 |
| 20260905111547 | 61 | 238 | 0.9 | 5.2 | 0.00 | 0.31 | 0.02 | 94 | 998.1 |
| 20260905110046 | 60 | 37 | 0.9 | 7.0 | 0.00 | 0.31 | 0.02 | 94 | 997.8 |
| 20260905104549 | 60 | 57 | 1.7 | 7.8 | 0.00 | 0.35 | 0.02 | 94 | 997.8 |
| 20260905103047 | 59 | 261 | 0.9 | 4.3 | 0.00 | 0.35 | 0.02 | 94 | 997.7 |
| 20260905101544 | 59 | 359 | 0.9 | 5.2 | 0.00 | 0.35 | 0.02 | 94 | 997.8 |
| 20260905100044 | 59 | 264 | 0.0 | 5.2 | 0.00 | 0.35 | 0.02 | 94 | 997.8 |
| 20260905094558 | 59 | 332 | 0.0 | 3.5 | 0.00 | 0.39 | 0.02 | 94 | 997.7 |
| 20260905093044 | 59 | 226 | 0.0 | 3.5 | 0.00 | 0.39 | 0.02 | 94 | 997.8 |
| 20260905091545 | 59 | 15 | 0.0 | 4.3 | 0.00 | 0.39 | 0.02 | 94 | 997.8 |
| 20260905090039 | 60 | 323 | 0.9 | 3.5 | 0.01 | 0.39 | 0.02 | 94 | 997.8 |
| 20260905084542 | 60 | 266 | 0.0 | 3.5 | 0.01 | 0.56 | 0.02 | 94 | 997.8 |
| 20260905083035 | 60 | 128 | 0.9 | 4.3 | 0.02 | 0.56 | 0.02 | 93 | 997.7 |
| 20260905081534 | 61 | 250 | 0.9 | 5.2 | 0.01 | 0.56 | 0.01 | 94 | 997.7 |
| 20260905080048 | 61 | 42 | 0.0 | 3.5 | 0.01 | 0.56 | 0.01 | 94 | 997.7 |
| 20260905074531 | 61 | 260 | 0.0 | 0.9 | 0.01 | 0.65 | 0.01 | 94 | 997.6 |
| 20260905073040 | 61 | 261 | 0.0 | 0.9 | 0.00 | 0.65 | 0.00 | 93 | 997.7 |
| 20260905071530 | 61 | 273 | 0.9 | 2.6 | 0.00 | 0.65 | 0.00 | 93 | 997.8 |
| 20260905070039 | 61 | 263 | 0.0 | 2.6 | 0.00 | 0.65 | 0.00 | 93 | 997.8 |
| 20260905064528 | 61 | 263 | 0.9 | 1.7 | 0.00 | 0.65 | 0.00 | 93 | 997.9 |
| 20260905063025 | 61 | 237 | 0.0 | 1.7 | 0.00 | 0.65 | 0.00 | 93 | 998.1 |
| 20260905061536 | 61 | 252 | 0.0 | 0.0 | 0.00 | 0.65 | 0.00 | 93 | 998.2 |
| 20260905060022 | 61 | 252 | 0.0 | 0.9 | 0.00 | 0.65 | 0.00 | 93 | 998.4 |
| 20260905054520 | 61 | 296 | 0.0 | 1.7 | 0.00 | 0.66 | 0.00 | 93 | 998.7 |
| 20260905053021 | 62 | 351 | 0.0 | 1.7 | 0.00 | 0.66 | 0.00 | 93 | 998.7 |
| 20260905051516 | 62 | 320 | 0.0 | 4.3 | 0.00 | 0.66 | 0.00 | 93 | 998.7 |